KC3QWH Weather Reports


time (UTC)temp
F
wind
direction
speed
knots
gust
knots
rain 1hr
in
rain 24hr
in
rain mn
in
humidity
%
barometer
mb
20260506003057 75 215 6.1 11.3 0.00 0.00 0.00 38 1008.2
20260506001603 76 155 6.1 11.3 0.00 0.00 0.00 38 1008.0
20260506000107 77 231 7.8 13.0 0.00 0.00 0.00 37 1008.0
20260505234600 77 228 7.8 13.0 0.00 0.00 0.00 36 1008.0
20260505233123 78 238 10.4 14.8 0.00 0.00 0.00 35 1007.8
20260505231558 79 232 10.4 20.9 0.00 0.00 0.00 35 1007.9
20260505230104 79 221 8.7 20.0 0.00 0.00 0.00 37 1007.7
20260505224601 79 247 9.6 14.8 0.00 0.00 0.00 36 1007.6
20260505223130 80 227 11.3 20.0 0.00 0.00 0.00 36 1007.6
20260505221602 80 217 9.6 19.1 0.00 0.00 0.00 37 1007.9
20260505220057 80 233 7.0 13.0 0.00 0.00 0.00 40 1007.8
20260505214554 80 220 15.6 20.9 0.00 0.00 0.00 37 1007.8
20260505213059 80 206 9.6 20.9 0.00 0.00 0.00 37 1007.6
20260505211553 81 221 12.2 20.0 0.00 0.00 0.00 36 1007.6
20260505210106 81 205 13.9 19.1 0.00 0.00 0.00 36 1007.5
20260505204559 81 233 13.0 24.3 0.00 0.00 0.00 38 1007.7
20260505203057 81 224 13.0 20.9 0.00 0.00 0.00 38 1007.5
20260505201555 80 255 13.0 22.6 0.00 0.00 0.00 37 1007.7
20260505200056 81 245 12.2 20.0 0.00 0.00 0.00 38 1007.8
20260505194559 81 245 13.0 19.1 0.00 0.00 0.00 38 1008.0
20260505193124 80 221 9.6 23.5 0.00 0.00 0.00 41 1008.0
20260505191607 80 195 11.3 21.7 0.00 0.00 0.00 39 1008.3
20260505190055 80 263 11.3 25.2 0.00 0.00 0.00 39 1008.4
20260505184603 80 222 13.0 20.0 0.00 0.00 0.00 39 1008.7
20260505183057 80 217 10.4 21.7 0.00 0.00 0.00 41 1008.9
20260505181600 80 220 13.9 22.6 0.00 0.00 0.00 42 1008.8
20260505180113 80 239 12.2 20.9 0.00 0.00 0.00 42 1009.2
20260505174609 79 233 9.6 17.4 0.00 0.00 0.00 40 1009.2
20260505173108 79 221 13.0 20.0 0.00 0.00 0.00 39 1009.3
20260505171600 79 243 9.6 22.6 0.00 0.00 0.00 41 1009.6
20260505170059 79 249 13.9 19.1 0.00 0.00 0.00 42 1009.7
20260505164602 79 231 9.6 16.5 0.00 0.00 0.00 44 1009.7
20260505163058 79 236 7.8 15.6 0.00 0.00 0.00 46 1010.1
20260505161559 78 226 6.1 13.9 0.00 0.00 0.00 47 1010.1
20260505153105 77 264 7.8 13.9 0.00 0.00 0.00 51 1010.4
20260505151558 76 192 8.7 13.9 0.00 0.00 0.00 49 1010.2
20260505130109 66 224 7.0 9.6 0.00 0.00 0.00 63 1011.7
20260505124605 65 0 0.0 0.0 0.00 0.00 0.00 69 1011.7
20260505123112 63 0 0.0 0.0 0.00 0.00 0.00 75 1011.8
20260505121556 60 0 0.0 3.5 0.00 0.00 0.00 77 1011.5
20260505120108 57 24 1.7 2.6 0.00 0.00 0.00 79 1011.5
20260505114558 56 23 0.9 2.6 0.00 0.00 0.00 79 1011.5
20260505113059 54 21 1.7 3.5 0.00 0.00 0.00 82 1011.3
20260505111557 52 43 3.5 5.2 0.00 0.00 0.00 84 1011.1
20260505110106 50 46 1.7 3.5 0.00 0.00 0.00 85 1011.2
20260505101556 51 3 3.5 5.2 0.00 0.00 0.00 83 1010.9
20260505100058 51 359 0.9 1.7 0.00 0.00 0.00 82 1010.4
20260505094557 52 8 1.7 2.6 0.00 0.00 0.00 82 1010.6
20260505093054 52 261 1.7 5.2 0.00 0.00 0.00 81 1010.5
20260505091619 52 33 3.5 5.2 0.00 0.00 0.00 81 1010.3
20260505090120 53 39 4.3 6.1 0.00 0.00 0.00 80 1010.1
20260505084613 53 41 2.6 3.5 0.00 0.00 0.00 79 1010.2
20260505083108 53 11 2.6 3.5 0.00 0.00 0.00 79 1010.2
20260505081603 54 16 3.5 4.3 0.00 0.00 0.00 79 1010.1
20260505074555 54 27 2.6 3.5 0.00 0.00 0.00 78 1010.1
20260505073101 55 34 2.6 2.6 0.00 0.00 0.00 76 1009.8
20260505071613 55 39 0.0 2.6 0.00 0.00 0.00 76 1009.6
20260505070058 55 34 2.6 4.3 0.00 0.00 0.00 76 1009.8
20260505064605 55 46 2.6 4.3 0.00 0.00 0.00 76 1009.9
20260505063100 56 49 4.3 6.1 0.00 0.00 0.00 75 1010.0
20260505061609 56 43 2.6 3.5 0.00 0.00 0.00 75 1010.1
20260505060104 57 37 0.9 2.6 0.00 0.00 0.00 73 1010.1
20260505054556 57 44 1.7 2.6 0.00 0.00 0.00 70 1010.0
20260505053108 57 0 0.0 1.7 0.00 0.00 0.00 70 1010.1
20260505051604 57 41 1.7 3.5 0.00 0.00 0.00 71 1010.1
20260505041602 60 36 0.9 1.7 0.00 0.00 0.00 64 1009.8
20260505034557 59 152 0.0 0.9 0.00 0.00 0.00 63 1009.7
20260505033057 61 25 0.9 1.7 0.00 0.00 0.00 62 1009.8
20260505031556 62 0 0.9 3.5 0.00 0.00 0.00 59 1009.8
20260505030123 62 360 0.9 5.2 0.00 0.00 0.00 59 1009.8
20260505024559 62 31 3.5 5.2 0.00 0.00 0.00 57 1009.7
20260505023055 64 34 2.6 5.2 0.00 0.00 0.00 55 1009.6
20260505021557 66 176 1.7 7.8 0.00 0.00 0.00 51 1009.5
20260505020100 66 208 2.6 7.0 0.00 0.00 0.00 50 1009.6
20260505014610 66 219 4.3 9.6 0.00 0.00 0.00 50 1009.5
20260505013056 67 222 4.3 10.4 0.00 0.00 0.00 49 1009.6
20260505011557 67 220 5.2 10.4 0.00 0.00 0.00 49 1009.6
20260505004600 68 203 4.3 8.7 0.00 0.00 0.00 48 1009.2